Location: Opava
(49.9500°N, 17.9170°E)
Time: 21:07:06
(UTC+01:00)

ISS - Visible Passes

Search period start: 25 March 2023 00:00
Search period end: 04 April 2023 01:00
Orbit: 414 x 422 km, 51.6° (Epoch: 25 March)

Date Brightness Start Highest point End Pass type
(mag) Time Alt. Az. Time Alt. Az. Time Alt. Az.
25 Mar -3.6 19:31:49 10° WNW 19:35:09 66° N 19:36:44 28° E visible
25 Mar -1.1 21:08:39 10° WNW 21:09:40 18° W 21:09:40 18° W visible
26 Mar -3.4 19:43:47 10° W 19:47:07 62° N 19:50:26 10° E visible
26 Mar -3.5 21:20:38 10° WNW 21:23:36 63° WSW 21:23:36 63° WSW visible
27 Mar -3.8 20:32:35 10° WNW 20:35:57 88° NNE 20:37:29 29° ESE visible
27 Mar -1.0 22:09:35 10° W 22:10:25 15° W 22:10:25 15° W visible
28 Mar -3.7 19:44:28 10° WNW 19:47:50 74° N 19:51:10 10° E visible
28 Mar -2.8 21:21:21 10° W 21:24:16 37° SW 21:24:16 37° SW visible
29 Mar -3.4 20:33:08 10° WNW 20:36:25 54° SSW 20:38:07 25° SE visible
30 Mar -3.6 19:44:55 10° WNW 19:48:16 74° SSW 19:51:36 10° ESE visible
30 Mar -1.7 21:22:12 10° W 21:24:37 19° SW 21:24:52 18° SSW visible
31 Mar -2.2 20:33:38 10° W 20:36:32 27° SW 20:38:43 14° SSE visible
02 Apr -1.1 20:34:38 10° WSW 20:36:16 13° SW 20:37:53 10° SSW visible
